CW2659 Weather Reports


time (UTC)temp
F
wind
direction
speed
knots
gust
knots
rain 1hr
in
rain 24hr
in
rain mn
in
humidity
%
barometer
mb
20260507031510 52 234 2.6 7.0 0.00 0.02 0.02 89 1019.9
20260507030006 52 216 2.6 5.2 0.00 0.02 0.02 88 1019.8
20260507024509 52 280 3.5 6.1 0.00 0.02 0.02 88 1019.8
20260507023004 52 286 3.5 9.6 0.00 0.02 0.02 88 1019.7
20260507021504 52 237 4.3 7.8 0.00 0.02 0.02 88 1019.5
20260507020004 52 280 4.3 10.4 0.00 0.02 0.02 88 1019.7
20260507014503 53 235 4.3 9.6 0.00 0.02 0.02 88 1019.8
20260507013008 53 246 4.3 8.7 0.00 0.02 0.02 88 1019.8
20260507011509 53 317 4.3 8.7 0.00 0.02 0.02 88 1019.7
20260507010002 53 309 3.5 9.6 0.00 0.02 0.02 87 1019.7
20260507004501 53 248 6.1 10.4 0.00 0.02 0.02 88 1019.8
20260507003100 53 252 5.2 10.4 0.00 0.02 0.02 87 1019.8
20260507001600 53 265 5.2 9.6 0.00 0.02 0.02 88 1019.8
20260507000101 53 276 5.2 12.2 0.00 0.02 0.02 87 1019.8
20260506234559 53 259 6.1 11.3 0.00 0.02 0.02 88 1019.8
20260506233111 52 242 4.3 7.8 0.00 0.02 0.02 89 1019.9
20260506231602 52 266 5.2 8.7 0.00 0.02 0.02 89 1019.9
20260506230057 52 235 5.2 9.6 0.00 0.02 0.02 90 1019.9
20260506224556 52 206 5.2 8.7 0.00 0.02 0.02 91 1019.9
20260506223055 52 234 4.3 10.4 0.00 0.02 0.02 92 1020.0
20260506221558 51 229 4.3 7.8 0.00 0.02 0.02 93 1020.0
20260506220054 51 234 3.5 10.4 0.00 0.02 0.02 95 1020.0
20260506214555 51 250 4.3 11.3 0.00 0.02 0.02 96 1020.1
20260506213110 51 246 5.2 7.8 0.00 0.02 0.02 97 1020.0
20260506211552 51 230 6.1 8.7 0.00 0.02 0.02 98 1020.0
20260506210050 50 219 6.1 10.4 0.00 0.02 0.02 98 1020.0
20260506204550 50 228 4.3 8.7 0.00 0.02 0.02 98 1020.0
20260506203049 50 231 5.2 8.7 0.00 0.02 0.02 98 1019.9
20260506201548 50 276 3.5 9.6 0.00 0.02 0.02 98 1019.9
20260506200047 50 240 5.2 10.4 0.00 0.02 0.02 98 1019.8
20260506194548 50 269 5.2 8.7 0.00 0.02 0.02 98 1019.8
20260506193044 51 228 4.3 7.8 0.00 0.02 0.02 98 1019.6
20260506191544 50 219 3.5 6.1 0.00 0.02 0.02 98 1019.5
20260506190044 50 238 3.5 7.8 0.00 0.02 0.02 98 1019.5
20260506184550 50 251 2.6 7.8 0.00 0.02 0.02 98 1019.6
20260506183054 50 277 2.6 7.8 0.00 0.02 0.02 98 1019.6
20260506181609 50 257 5.2 9.6 0.00 0.02 0.02 98 1019.4
20260506180041 50 217 4.3 9.6 0.00 0.02 0.02 98 1019.2
20260506174541 50 232 6.1 9.6 0.00 0.02 0.02 98 1019.1
20260506173054 50 220 4.3 9.6 0.00 0.02 0.02 98 1019.2
20260506171537 50 234 2.6 7.0 0.00 0.02 0.02 98 1019.4
20260506170039 50 230 4.3 7.0 0.00 0.02 0.02 98 1019.2
20260506164537 50 265 4.3 6.1 0.01 0.02 0.02 98 1019.1
20260506163037 50 263 1.7 8.7 0.01 0.02 0.02 98 1018.8
20260506161532 50 218 4.3 7.0 0.01 0.02 0.02 98 1018.5
20260506160033 50 230 2.6 7.0 0.01 0.02 0.02 98 1018.7
20260506154532 50 245 4.3 7.0 0.00 0.01 0.01 98 1018.8
20260506153030 50 191 4.3 9.6 0.01 0.01 0.01 97 1018.8
20260506151529 50 190 1.7 7.8 0.01 0.01 0.01 98 1018.6
20260506150032 50 213 3.5 7.8 0.01 0.01 0.01 98 1018.6
20260506144528 50 211 4.3 7.0 0.01 0.01 0.01 97 1018.7
20260506143031 51 224 1.7 7.0 0.00 0.00 0.00 97 1018.7
20260506141526 50 186 4.3 8.7 0.00 0.00 0.00 97 1018.4
20260506140026 50 211 2.6 6.1 0.00 0.00 0.00 97 1018.5
20260506134525 50 221 3.5 6.1 0.00 0.00 0.00 97 1018.5
20260506133026 50 238 2.6 7.0 0.00 0.00 0.00 97 1018.3
20260506131532 50 248 3.5 7.0 0.00 0.00 0.00 97 1018.0
20260506130022 50 200 5.2 10.4 0.00 0.00 0.00 97 1018.1
20260506124519 50 210 3.5 7.0 0.00 0.00 0.00 96 1017.9
20260506123019 50 213 3.5 7.0 0.00 0.00 0.00 96 1017.7
20260506121517 50 199 3.5 6.1 0.00 0.00 0.00 96 1017.8
20260506120019 50 197 4.3 7.0 0.00 0.00 0.00 96 1017.7
20260506114521 50 231 3.5 7.0 0.00 0.00 0.00 95 1017.5
20260506113025 50 223 5.2 7.8 0.00 0.00 0.00 95 1017.5
20260506111513 50 208 5.2 7.8 0.00 0.00 0.00 95 1017.5
20260506110012 50 227 5.2 7.0 0.00 0.00 0.00 95 1017.4
20260506104509 51 214 4.3 7.8 0.00 0.00 0.00 95 1017.2
20260506103012 51 239 6.1 9.6 0.00 0.00 0.00 95 1017.1
20260506101509 51 243 5.2 8.7 0.00 0.00 0.00 95 1017.1
20260506100009 51 235 6.1 10.4 0.00 0.00 0.00 95 1016.9
20260506094504 51 224 4.3 7.8 0.00 0.00 0.00 95 1016.8
20260506093003 51 219 6.1 9.6 0.00 0.00 0.00 94 1016.7
20260506091500 51 209 6.1 9.6 0.00 0.00 0.00 94 1016.7
20260506090104 51 236 6.1 8.7 0.00 0.00 0.00 94 1016.6
20260506084605 51 233 6.1 9.6 0.00 0.00 0.00 94 1016.4
20260506083056 51 183 5.2 8.7 0.00 0.00 0.00 93 1016.4
20260506081554 51 197 5.2 7.8 0.00 0.00 0.00 93 1016.3
20260506080104 52 192 5.2 7.8 0.00 0.00 0.00 93 1016.3
20260506073049 52 203 4.3 7.8 0.00 0.00 0.00 92 1016.2
20260506071545 53 196 4.3 7.8 0.00 0.00 0.00 91 1016.1
20260506061538 55 211 6.1 7.8 0.00 0.00 0.00 89 1015.5
20260506044538 56 231 5.2 8.7 0.00 0.00 0.00 86 1015.1
20260506043035 57 192 6.1 7.8 0.00 0.00 0.00 85 1015.0
20260506041535 57 214 4.3 7.0 0.00 0.00 0.00 84 1014.9
20260506040034 57 203 5.2 7.0 0.00 0.00 0.00 83 1014.9
20260506034537 58 214 2.6 5.2 0.00 0.00 0.00 81 1014.8
20260506033033 59 196 1.7 6.1 0.00 0.00 0.00 79 1014.6